loading
|
Showing default

DIADEME 2, 2680

Orbit data source: Space-Track

DIADEME 2, 2680 is a payload satellite owned by CNES (FR) in LEO that was launched on Wed, 15 Feb 1967 UTC via a DIAMANT A launch vehicle from the Hamma Guira Space Track Range (HGSTR). Payloads include a variety of satellites, spacecraft, and rockets equipped with specific instruments for various scientific and technological missions. These include communications satellites like Starlink; space stations such as the ISS; scientific satellites like the Hubble; Earth observation satellites from companies like Planet Labs, Umbra, and HawkEye 360; GPS; miniature CubeSats for education and research; and military/defense satellites.

Loading next visibility...
Loading greatness...
DIADEME 2 details
Identifier
2680, 1967-014A
Orbit
LEO
Last TLE update14 hours ago
Origin
Flag of FRCNES (FR)
ManufacturerCNES
MissionCivil Geodetic
Bus & MotorD-1, Unknown motor
Mass23 kg wet, 23 kg dry
Launch date (UTC)
1967-02-15 (58 years ago)
Launch vehicle
DIAMANT A
Launch site
Hamma Guira Space Track Range (HGSTR)
Object type
Payload
Rocket body
Debris
Shape & HBRCyl + 4 Pan, 1.5 m
Radar Cross Section0.455 m², Medium (>0.1 m² and < 1m²)

Expand to show TLE details & history

TLE from 14 hours ago
0 DIADEME 2
1 02680U 67014A   24278.47707059  .00001910  00000-0  79481-3 0  9999
2 02680  39.4400 338.7472 0709000 104.4494 263.5925 13.40309196792628
Epoch: 2024-10-04T11:26Z
Definitive object data (Epoch: 2024-10-04T11:26:58.898Z)
Latitude-0.0001°
Longitude153.3545°
Altitude1,203.391 km
Speed7.207 km/s
True Right ascension22h 34m 59s
True Declination0° 00' 00"
Sunlit
Object was in full shadow at TLE epoch
Predictive object data (real-time)
Latitude-39.50724°
Longitude56.85573°
Altitude1,610.844 km
Speed6.83 km/s
Apparent Right ascension12h 41m 15s
Apparent Declination-64° 05' 51"
Sunlit
Object is in daylight
Predictive observer data (real-time)
Local Sidereal Time19:10:48
Azimuth213.525° SW
Elevation-38.337°
Doppler factor1
Orbital elements
Apogee1,641.415 km
Perigee579.53 km
Semi-major axis7,488.609 km
Eccentricity0.0709
Inclination39.44°
RAAN338.7472°
Arg. of periapsis104.4494°
True anomaly255.62355°
Mean anomaly263.5925°
Eccentric anomaly259.597°
Mean motion3.3492 °/min
BSTAR0.00079481
Period107.49 mins
No data available

DIADEME 2 Visibility forecast

Observer location: 39.9160978°, -105.1181434

DIADEME 2 is not visible in the next 10 days
Span
Click to sort rows by Start time (UTC) header in descending order
Start Az.
Max El. time (UTC)
Max El. Az.
Max El.
End time (UTC)
End Az.